Tracking 30995 objects as of 5-Jul-2025
HD Live streaming from Space Station
objects crossing your sky now

SL-8 DEB *

Track SL-8 DEB * now!
10-day predictions


NORAD ID: 13499
Int'l Code: 1976-069D
Perigee: 685.7 km
Apogee: 705.9 km
Inclination: 74.1 °
Period: 98.5 minutes
Semi major axis: 7066 km
RCS: 0.0077 m2 (small)
Launch date: July 15, 1976
Source: Commonwealth of Independent States (former USSR) (CIS)
Launch site: PLESETSK MISSILE AND SPACE COMPLEX (PKMTR)

Note: This is SATELLITE DEBRIS
Your satellite tracking list
STARLINK-31574
Track 1 satellite(s)




NASA's NSSDC Master Catalog

Two Line Element Set (TLE):
1 13499U 76069D   25186.62753637  .00001404  00000-0  28933-3 0  9992
2 13499  74.0533 270.1711 0014232 237.1100 239.9145 14.61397386345244
Source of the keplerian elements: AFSPC